Portada
METAR-TAF:

METAR-TAF

Aeroports :

Brookhaven Airport

Shirley, Nova York, Estats Units d'Amèrica

latitud: 40-49-18N, longitud: 072-52-08W, altitud: 25 m

Observació

L'informe es va fer fa 10 minuts, a les 20:56 UTC
Vent 11 kt del Sud/Sud-Oest amb ràfegues de 18 kt
Temperatura 9°C
Humitat 53%
Pressió 1014 hPa
Visibilitat: 16.1 km
Cel clar

METAR: KHWV 242056Z AUTO 20011G18KT 10SM CLR 09/00 A2994 RMK AO2 SLP139 T00890000 58025

Hora: 16:06 (21:06 UTC)


TAF: manca

Observacions i pronòstics meteorològics de més de 4000 aeroports (METAR i TAF).

Les estacions disponibles són els punts grocs i vermells al mapa.

Posi el ratolí al punt desitjat per veure el nom de l'estació.

Feu clic per veure les observacions i els pronòstics meteorològics.

Per canviar el mapa: feu clic els botons verds amb una creu de color negre per apropar; al botó verd amb un guió per allunyar la imatge; o en les fletxes verdes per a mapes adjacents.


METAR-TAF: